DMSP 5D-2 F13 DEB, 40495

Orbit data source: Space-Track

DMSP 5D-2 F13 DEB, 40495 is space debris in SSO originally from a launch on Fri, 24 Mar 1995 UTC launched from the Air Force Western Test Range (AFWTR). Debris objects in space refer to the collection of defunct objects orbiting the Earth. Examples of debris include non-operational satellites, rocket bodies, and fragments generated from explosions, collisions, or faulty payload assembly.

Loading next visibility...
DMSP 5D-2 F13 DEB details
Identifier
40495, 1995-015CJ
Orbit
SSO
Last TLE update17 hours ago
Origin
Flag of USUSAF SMC (US)
ManufacturerUnknown
MissionSpacecraft
Bus & MotorUnknown
MassUnknown
Launch date (UTC)
1995-03-24 (30 years ago)
Launch vehicleUnknown
Launch site
Air Force Western Test Range (AFWTR)
Object type
Payload
Rocket body
Debris
Shape & HBRUnknown
Radar Cross SectionSmall (<0.1 m²)

Expand to show TLE details & history

TLE from 17 hours ago
0 DMSP 5D-2 F13 DEB
1 40495U 95015CJ  24361.21200943  .00133289  00000-0  12459-1 0  9997
2 40495  98.5762 100.2836 0020893  77.7223 282.6332 14.93264515516559
Epoch: 2024-12-26T05:05Z
Definitive object data (Epoch: 2024-12-26T05:05:17.614Z)
Latitude-0.00003°
Longitude-71.23444°
Altitude587.628 km
Speed7.568 km/s
True Right ascension06h 41m 08s
True Declination0° 00' 00"
Sunlit
Object was in full shadow at TLE epoch
Visualization TLE readout
Latitude70.77101°
Longitude134.98546°
Altitude587.054 km
Speed7.58 km/s
Apparent Right ascension09h 32m 51s
Apparent Declination43° 07' 58"
Sunlit
Object is in daylight
Visualization observer readout
Local Sidereal Time21:01:49
Azimuth354.306° N
Elevation-6.655°
Doppler factor1
Orbital elements
Apogee altitude599.367 km
Perigee altitude570.272 km
Semi-major axis6,962.957 km
Eccentricity0.0020893
Inclination98.5762°
RAAN100.2836°
Arg. of periapsis77.7223°
True anomaly282.39945°
Mean anomaly282.6332°
Eccentric anomaly282.51634°
Mean motion3.73553 °/min
BSTAR0.012459
Orbital period96.37 mins
Loading maneuver chart data...

DMSP 5D-2 F13 DEB Visibility forecast

Observer location: undefined°, undefined

Span
Click to sort rows by Start time (UTC) header in descending order
Start Az.
Max El. time (UTC)
Max El. Az.
Max El.
End time (UTC)
End Az.
7 mins2024-12-27 06:55:47.695Z171.787° S2024-12-27 06:59:47.695Z270.906° WNW43.749°2024-12-27 07:02:47.695Z340.969° N
6 mins2024-12-27 20:14:47.695Z352.788° N2024-12-27 20:17:47.695Z280.405° WNW33.633°2024-12-27 20:20:47.695Z221.326° SW
|